Location: Observatoire de Paris
(48.8363°N, 2.3365°E)
Time: 08:19:36
(UTC+01:00)

BUGSAT 1 - Pass Details

Date: 03 October 2021
Orbit: 556 x 602 km, 98.1° (Epoch: 22 October)

Event Time Altitude Azimuth Distance (km) Brightness Sun altitude
Rises 06:02:42 0° 12° (NNE) 2,783 ? -9.1°
Reaches altitude 10° 06:04:52 10° 10° (N) 1,875 ? -8.8°
Maximum altitude 06:08:53 69° 287° (WNW) 604 ? -8.1°
Drops below altitude 10° 06:12:51 10° 204° (SSW) 1,842 ? -7.5°
Sets 06:14:58 0° 202° (SSW) 2,730 ? -7.1°
